RADIO ROSTO (RS-15) (23439 NORAD) Tracking and Keplerian Element Data

This shows tracking and keplerian element data for the satellite.

Feedback or suggestion? Click here.




ElementValue
Catalog23439
NameRADIO ROSTO (RS-15)
Epoch Orbit21254
Epoch Day159.89012551
Epoch Year2024
RAAN58.8031
Inclination64.8193
Eccentricity0.0150238
Argument of Perigee145.5079
Mean Anonmoly215.5704
Mean Motion11.2757725
Decay Rate-2.2E-07
L11 23439U 94085A 24159.89012551 -.00000022 00000+0 59503-3 0 9998
L22 23439 64.8193 58.8031 0150238 145.5079 215.5704 11.27577250212544



Live tracking and technical data element details for RADIO ROSTO (RS-15) (NORAD 23439). RADIO ROSTO (RS-15) can be tracked NOW for your location showing map with azimuth and elevation plus other details from your city location.







IsCatalogInMostPopularTable: catalog: 23439, numindb: 638
Update: records affected: 1



GetName: 23439 RADIO ROSTO (RS-15)

Hit Count: updated at: Mon, 17 Jun 2024 22:37:46 GMT